Location: Westerlo
(51.0830°N, 4.9170°E)
Time: 23:30:25
(UTC+02:00)

ISS - Visible Passes

Search period start: 16 April 2024 00:00
Search period end: 26 April 2024 00:00
Orbit: 412 x 419 km, 51.6° (Epoch: 16 April)

Date Brightness Start Highest point End Pass type
(mag) Time Alt. Az. Time Alt. Az. Time Alt. Az.
22 Apr -1.2 05:33:15 10° SSE 05:34:49 13° SE 05:36:22 10° ESE visible
24 Apr -2.1 05:30:30 10° SSW 05:33:18 25° SSE 05:36:07 10° E visible
25 Apr -1.7 04:43:08 14° S 04:44:30 17° SE 04:46:47 10° E visible
